TimeEDT,TemperatureF,Dew PointF,Humidity,Sea Level PressureIn,VisibilityMPH,Wind Direction,Wind SpeedMPH,Gust SpeedMPH,PrecipitationIn,Events,Conditions,WindDirDegrees,DateUTC
12:53 AM,57.0,33.1,40,30.15,10.0,East,3.5,-,N/A,,Clear,100,2013-04-23 04:53:00
1:53 AM,55.9,33.1,42,30.15,10.0,SE,4.6,-,N/A,,Clear,130,2013-04-23 05:53:00
2:53 AM,55.0,32.0,42,30.14,10.0,SE,5.8,-,N/A,,Clear,140,2013-04-23 06:53:00
3:53 AM,53.1,32.0,45,30.14,10.0,SSE,4.6,-,N/A,,Clear,150,2013-04-23 07:53:00
4:53 AM,53.1,30.9,43,30.14,10.0,SE,5.8,-,N/A,,Clear,140,2013-04-23 08:53:00
5:53 AM,51.8,30.2,44,30.14,10.0,ESE,4.6,-,N/A,,Clear,120,2013-04-23 09:53:00
6:53 AM,50.0,30.9,48,30.13,10.0,SE,4.6,-,N/A,,Clear,130,2013-04-23 10:53:00
7:53 AM,51.1,32.0,48,30.17,10.0,Calm,Calm,-,N/A,,Clear,0,2013-04-23 11:53:00
8:53 AM,53.1,35.1,50,30.17,10.0,Variable,3.5,-,N/A,,Clear,0,2013-04-23 12:53:00
9:53 AM,57.9,36.0,44,30.17,10.0,Calm,Calm,-,N/A,,Clear,0,2013-04-23 13:53:00
10:53 AM,64.0,39.0,40,30.17,10.0,Calm,Calm,-,N/A,,Clear,0,2013-04-23 14:53:00
11:53 AM,69.1,43.0,39,30.14,10.0,Calm,Calm,-,N/A,,Partly Cloudy,0,2013-04-23 15:53:00
12:53 PM,70.0,43.0,38,30.12,10.0,Variable,3.5,-,N/A,,Partly Cloudy,0,2013-04-23 16:53:00
1:53 PM,73.9,43.0,33,30.09,10.0,SW,6.9,-,N/A,,Clear,230,2013-04-23 17:53:00
2:53 PM,71.1,39.9,32,30.06,10.0,Variable,4.6,-,N/A,,Scattered Clouds,0,2013-04-23 18:53:00
3:53 PM,73.0,42.1,33,30.04,10.0,WSW,6.9,-,N/A,,Clear,240,2013-04-23 19:53:00
4:53 PM,71.1,42.1,35,30.04,10.0,Variable,4.6,-,N/A,,Clear,0,2013-04-23 20:53:00
5:53 PM,69.1,42.1,38,30.01,10.0,Calm,Calm,-,N/A,,Scattered Clouds,0,2013-04-23 21:53:00
6:53 PM,69.1,42.1,38,30.01,10.0,Calm,Calm,-,N/A,,Partly Cloudy,0,2013-04-23 22:53:00
7:53 PM,68.0,41.0,37,29.98,10.0,Variable,6.9,-,N/A,,Clear,0,2013-04-23 23:53:00
8:53 PM,64.9,41.0,42,29.98,10.0,Variable,3.5,-,N/A,,Clear,0,2013-04-24 00:53:00
9:53 PM,64.0,39.9,41,29.99,10.0,Calm,Calm,-,N/A,,Clear,0,2013-04-24 01:53:00
10:53 PM,62.1,41.0,46,29.98,10.0,Variable,3.5,-,N/A,,Clear,0,2013-04-24 02:53:00
11:53 PM,62.1,41.0,46,29.97,10.0,Variable,5.8,-,N/A,,Clear,0,2013-04-24 03:53:00